{"data":{"norad_id":58481,"intl_designator":"2023-186J","name":"STARLINK-30956","alt_names":[],"object_type":"PAYLOAD","status":"ACTIVE","operator":null,"country":"US","launch_date":"2023-12-03","launch_site_code":"AFETR","launch_vehicle":null,"mission":null,"orbit_class":"UNKNOWN","rcs_meters":null,"size_class":null,"mass_kg":null,"dimensions":null,"purposes":["comms"],"wikipedia_slug":null,"has_3d_model":false,"image_url":null,"decayed_at":null,"tle_current":{"epoch":"2026-05-25T04:49:56.707392Z","epoch_age_seconds":67735,"freshness":"FRESH","line1":"1 58481U 23186J   26145.20135078  .00001528  00000+0  65017-4 0  9998","line2":"2 58481  43.0013 329.1810 0001328 276.2195  83.8506 15.27584846137853","mean_motion":15.27584846,"eccentricity":0.0001328,"inclination_deg":43.0013,"raan_deg":329.181,"arg_perigee_deg":276.2195,"mean_anomaly_deg":83.8506,"bstar":6.5017e-5,"rev_number":13785,"period_min":94.266449668616,"perigee_km":482.12342182413,"apogee_km":483.94574899722,"semimajor_km":6861.1715854107,"source":"CELESTRAK","updated_at":"2026-05-25T13:38:18.651392Z"}}}